Current Conditions
Mostly Cloudy
Conditions



Pressure
998.92 (mb) - 29.5 (inHG)
Visibility

6.2 (miles) - 10.0 (km)
   Temperature
10  °C
Temperature
9  °C
Dewpoint
94  %
 Humidity
   Wind Speed
25  mph
22  kts
40  km/h
11.2  m/s
   Wind Direction
N
45°
E
90°
135°
S
180°
225°
W
270°
315°
 260°

Due West
   Airport Data
EGGD
Bristol Airport
Metar :EGGD 302350Z AUTO 26022G32KT 9999 BKN005 BKN013 OVC027 10/09 Q0999
Wed 1st December 00:50 am
   Raw Metar Info
Raw METAR is the most common format in the world for the transmission of observational weather data. It is highly standardized through the International Civil Aviation Organization (ICAO), which allows it to be understood throughout most of the world.
   API Info
Data Provided by
https://www.checkwx.com/weather/EGGD

Aviation Weather providing METAR, TAF, AIRMET, SIGMET and OUTLOOK Weather Reports
   © Info
CSS/SVG/PHP scripts were developed by weather34.com for use in the weather34 template © 2015-2021

Guide Info provided by Metar-Wikipedia